Year,Month,Day,Hour,Minute,Value (Times are PST for temperature in C)
2009,05,24,00,00,9.20
2009,05,24,00,01,9.20
2009,05,24,00,02,9.20
2009,05,24,00,03,9.20
2009,05,24,00,04,9.20
2009,05,24,00,05,9.20
2009,05,24,00,06,9.20
2009,05,24,00,07,9.20
2009,05,24,00,08,9.20
2009,05,24,00,09,9.10
2009,05,24,00,10,9.10
2009,05,24,00,11,9.10
2009,05,24,00,12,9.10
2009,05,24,00,13,9.10
2009,05,24,00,18,9.10
2009,05,24,00,19,9.10
2009,05,24,00,20,9.10
2009,05,24,00,21,9.10
2009,05,24,00,22,9.10
2009,05,24,00,23,9.10
2009,05,24,00,24,9.10
2009,05,24,00,25,9.10
2009,05,24,00,26,9.10
2009,05,24,00,27,9.00
2009,05,24,00,28,9.00
2009,05,24,00,29,9.00
2009,05,24,00,30,9.00
2009,05,24,00,31,8.90
2009,05,24,00,32,8.90
2009,05,24,00,33,8.90
2009,05,24,00,34,8.90
2009,05,24,00,35,8.90
2009,05,24,00,36,8.90
2009,05,24,00,37,8.90
2009,05,24,00,38,8.90
2009,05,24,00,39,8.90
2009,05,24,00,40,8.90
2009,05,24,00,41,8.90
2009,05,24,00,42,8.90
2009,05,24,00,43,8.80
2009,05,24,00,44,8.80
2009,05,24,00,45,8.80
2009,05,24,00,46,8.80
2009,05,24,00,47,8.80
2009,05,24,00,48,8.80
2009,05,24,00,49,8.80
2009,05,24,00,50,8.80
2009,05,24,00,51,8.80
2009,05,24,00,52,8.80
2009,05,24,00,53,8.80
2009,05,24,00,54,8.80
2009,05,24,00,55,8.80
2009,05,24,00,56,8.80
2009,05,24,00,57,8.80
2009,05,24,00,58,8.80
2009,05,24,00,59,8.80
2009,05,24,01,00,8.80
2009,05,24,01,01,8.80
2009,05,24,01,02,8.80
2009,05,24,01,03,8.80
2009,05,24,01,04,8.80
2009,05,24,01,05,8.80
2009,05,24,01,06,8.80
2009,05,24,01,07,8.80
2009,05,24,01,08,8.80
2009,05,24,01,09,8.80
2009,05,24,01,10,8.80
2009,05,24,01,11,8.80
2009,05,24,01,12,8.80
2009,05,24,01,13,8.80
2009,05,24,01,14,8.80
2009,05,24,01,15,8.80
2009,05,24,01,16,8.80
2009,05,24,01,17,8.80
2009,05,24,01,18,8.80
2009,05,24,01,19,8.80
2009,05,24,01,20,8.80
2009,05,24,01,21,8.80
2009,05,24,01,22,8.80
2009,05,24,01,23,8.80
2009,05,24,01,24,8.80
2009,05,24,01,25,8.80
2009,05,24,01,26,8.80
2009,05,24,01,27,8.80
2009,05,24,01,28,8.80
2009,05,24,01,29,8.80
2009,05,24,01,30,8.80
2009,05,24,01,31,8.80
2009,05,24,01,32,8.80
2009,05,24,01,33,8.80
2009,05,24,01,34,8.80
2009,05,24,01,35,8.80
2009,05,24,01,36,8.80
2009,05,24,01,37,8.80
2009,05,24,01,38,8.80
2009,05,24,01,39,8.80
2009,05,24,01,40,8.80
2009,05,24,01,41,8.80
2009,05,24,01,42,8.80
2009,05,24,01,43,8.80
2009,05,24,01,44,8.80
2009,05,24,01,45,8.80
2009,05,24,01,46,8.80
2009,05,24,01,47,8.80
2009,05,24,01,48,8.80
2009,05,24,01,49,8.80
2009,05,24,01,50,8.80
2009,05,24,01,51,8.80
2009,05,24,01,52,8.80
2009,05,24,01,53,8.80
2009,05,24,01,54,8.80
2009,05,24,01,55,8.80
2009,05,24,01,56,8.80
2009,05,24,01,57,8.80
2009,05,24,01,58,8.80
2009,05,24,01,59,8.80
2009,05,24,02,00,8.80
2009,05,24,02,01,8.80
2009,05,24,02,02,8.70
2009,05,24,02,03,8.70
2009,05,24,02,04,8.70
2009,05,24,02,05,8.70
2009,05,24,02,06,8.70
2009,05,24,02,07,8.70
2009,05,24,02,08,8.70
2009,05,24,02,09,8.70
2009,05,24,02,10,8.70
2009,05,24,02,11,8.70
2009,05,24,02,12,8.70
2009,05,24,02,13,8.70
2009,05,24,02,14,8.70
2009,05,24,02,15,8.70
2009,05,24,02,16,8.70
2009,05,24,02,17,8.70
2009,05,24,02,18,8.70
2009,05,24,02,19,8.70
2009,05,24,02,20,8.70
2009,05,24,02,21,8.70
2009,05,24,02,22,8.70
2009,05,24,02,23,8.70
2009,05,24,02,24,8.70
2009,05,24,02,25,8.70
2009,05,24,02,26,8.70
2009,05,24,02,27,8.70
2009,05,24,02,28,8.70
2009,05,24,02,29,8.70
2009,05,24,02,30,8.70
2009,05,24,02,31,8.70
2009,05,24,02,32,8.70
2009,05,24,02,33,8.70
2009,05,24,02,34,8.70
2009,05,24,02,35,8.70
2009,05,24,02,36,8.70
2009,05,24,02,37,8.70
2009,05,24,02,38,8.70
2009,05,24,02,39,8.70
2009,05,24,02,40,8.70
2009,05,24,02,41,8.70
2009,05,24,02,42,8.70
2009,05,24,02,43,8.70
2009,05,24,02,44,8.70
2009,05,24,02,45,8.70
2009,05,24,02,46,8.70
2009,05,24,02,47,8.70
2009,05,24,02,48,8.70
2009,05,24,02,49,8.70
2009,05,24,02,50,8.70
2009,05,24,02,51,8.70
2009,05,24,02,52,8.60
2009,05,24,02,53,8.60
2009,05,24,02,54,8.60
2009,05,24,02,55,8.60
2009,05,24,02,56,8.60
2009,05,24,02,57,8.60
2009,05,24,02,58,8.60
2009,05,24,02,59,8.60
2009,05,24,03,00,8.60
2009,05,24,03,01,8.60
2009,05,24,03,02,8.60
2009,05,24,03,03,8.60
2009,05,24,03,04,8.60
2009,05,24,03,05,8.60
2009,05,24,03,06,8.50
2009,05,24,03,07,8.50
2009,05,24,03,08,8.50
2009,05,24,03,09,8.50
2009,05,24,03,10,8.50
2009,05,24,03,11,8.50
2009,05,24,03,12,8.50
2009,05,24,03,13,8.50
2009,05,24,03,14,8.50
2009,05,24,03,15,8.50
2009,05,24,03,16,8.50
2009,05,24,03,17,8.50
2009,05,24,03,18,8.50
2009,05,24,03,19,8.50
2009,05,24,03,20,8.50
2009,05,24,03,21,8.50
2009,05,24,03,22,8.50
2009,05,24,03,23,8.50
2009,05,24,03,24,8.50
2009,05,24,03,25,8.50
2009,05,24,03,26,8.50
2009,05,24,03,27,8.40
2009,05,24,03,28,8.40
2009,05,24,03,29,8.40
2009,05,24,03,30,8.40
2009,05,24,03,31,8.40
2009,05,24,03,32,8.40
2009,05,24,03,33,8.40
2009,05,24,03,34,8.40
2009,05,24,03,35,8.40
2009,05,24,03,36,8.40
2009,05,24,03,37,8.40
2009,05,24,03,38,8.40
2009,05,24,03,39,8.40
2009,05,24,03,40,8.40
2009,05,24,03,41,8.40
2009,05,24,03,42,8.30
2009,05,24,03,43,8.30
2009,05,24,03,44,8.30
2009,05,24,03,45,8.30
2009,05,24,03,46,8.30
2009,05,24,03,47,8.30
2009,05,24,03,48,8.30
2009,05,24,03,49,8.30
2009,05,24,03,50,8.30
2009,05,24,03,51,8.30
2009,05,24,03,52,8.30
2009,05,24,03,53,8.30
2009,05,24,03,54,8.30
2009,05,24,03,55,8.30
2009,05,24,03,56,8.30
2009,05,24,03,57,8.30
2009,05,24,03,58,8.30
2009,05,24,03,59,8.30
2009,05,24,04,00,8.30
2009,05,24,04,01,8.30
2009,05,24,04,02,8.30
2009,05,24,04,03,8.30
2009,05,24,04,04,8.30
2009,05,24,04,05,8.30
2009,05,24,04,06,8.30
2009,05,24,04,07,8.30
2009,05,24,04,08,8.30
2009,05,24,04,09,8.30
2009,05,24,04,10,8.30
2009,05,24,04,11,8.30
2009,05,24,04,12,8.30
2009,05,24,04,13,8.20
2009,05,24,04,14,8.20
2009,05,24,04,15,8.20
2009,05,24,04,16,8.20
2009,05,24,04,17,8.20
2009,05,24,04,18,8.20
2009,05,24,04,19,8.20
2009,05,24,04,20,8.20
2009,05,24,04,21,8.20
2009,05,24,04,22,8.20
2009,05,24,04,23,8.20
2009,05,24,04,24,8.20
2009,05,24,04,25,8.20
2009,05,24,04,26,8.10
2009,05,24,04,27,8.10
2009,05,24,04,28,8.10
2009,05,24,04,29,8.10
2009,05,24,04,30,8.10
2009,05,24,04,31,8.10
2009,05,24,04,32,8.10
2009,05,24,04,33,8.10
2009,05,24,04,34,8.10
2009,05,24,04,35,8.10
2009,05,24,04,36,8.10
2009,05,24,04,37,8.10
2009,05,24,04,38,8.00
2009,05,24,04,39,8.00
2009,05,24,04,40,8.00
2009,05,24,04,41,8.00
2009,05,24,04,42,8.00
2009,05,24,04,43,8.00
2009,05,24,04,44,8.00
2009,05,24,04,45,8.00
2009,05,24,04,46,8.00
2009,05,24,04,47,8.00
2009,05,24,04,48,8.00
2009,05,24,04,49,8.00
2009,05,24,04,50,8.00
2009,05,24,04,51,8.00
2009,05,24,04,52,8.00
2009,05,24,04,53,8.00
2009,05,24,04,54,8.10
2009,05,24,04,55,8.10
2009,05,24,04,56,8.00
2009,05,24,04,57,8.10
2009,05,24,04,58,8.10
2009,05,24,04,59,8.10
2009,05,24,05,00,8.10
2009,05,24,05,01,8.10
2009,05,24,05,02,8.10
2009,05,24,05,03,8.10
2009,05,24,05,04,8.10
2009,05,24,05,05,8.10
2009,05,24,05,06,8.10
2009,05,24,05,07,8.10
2009,05,24,05,08,8.10
2009,05,24,05,09,8.10
2009,05,24,05,10,8.10
2009,05,24,05,11,8.10
2009,05,24,05,12,8.10
2009,05,24,05,13,8.10
2009,05,24,05,14,8.10
2009,05,24,05,15,8.10
2009,05,24,05,16,8.10
2009,05,24,05,17,8.10
2009,05,24,05,18,8.10
2009,05,24,05,19,8.20
2009,05,24,05,20,8.20
2009,05,24,05,21,8.20
2009,05,24,05,22,8.20
2009,05,24,05,23,8.20
2009,05,24,05,24,8.20
2009,05,24,05,25,8.20
2009,05,24,05,26,8.20
2009,05,24,05,27,8.20
2009,05,24,05,28,8.20
2009,05,24,05,29,8.20
2009,05,24,05,30,8.20
2009,05,24,05,31,8.20
2009,05,24,05,32,8.20
2009,05,24,05,33,8.20
2009,05,24,05,34,8.20
2009,05,24,05,35,8.20
2009,05,24,05,36,8.20
2009,05,24,05,37,8.20
2009,05,24,05,38,8.20
2009,05,24,05,39,8.20
2009,05,24,05,40,8.20
2009,05,24,05,41,8.20
2009,05,24,05,42,8.20
2009,05,24,05,43,8.20
2009,05,24,05,44,8.20
2009,05,24,05,45,8.20
2009,05,24,05,46,8.20
2009,05,24,05,47,8.20
2009,05,24,05,48,8.20
2009,05,24,05,49,8.20
2009,05,24,05,50,8.20
2009,05,24,05,51,8.20
2009,05,24,05,52,8.20
2009,05,24,05,53,8.20
2009,05,24,05,54,8.20
2009,05,24,05,55,8.20
2009,05,24,05,56,8.20
2009,05,24,05,57,8.20
2009,05,24,05,58,8.20
2009,05,24,05,59,8.20
2009,05,24,06,00,8.20
2009,05,24,06,01,8.20
2009,05,24,06,02,8.20
2009,05,24,06,03,8.20
2009,05,24,06,04,8.20
2009,05,24,06,05,8.20
2009,05,24,06,06,8.20
2009,05,24,06,07,8.20
2009,05,24,06,08,8.20
2009,05,24,06,09,8.20
2009,05,24,06,10,8.20
2009,05,24,06,11,8.20
2009,05,24,06,12,8.20
2009,05,24,06,13,8.20
2009,05,24,06,14,8.20
2009,05,24,06,15,8.20
2009,05,24,06,16,8.20
2009,05,24,06,17,8.20
2009,05,24,06,18,8.20
2009,05,24,06,19,8.20
2009,05,24,06,20,8.20
2009,05,24,06,21,8.30
2009,05,24,06,22,8.30
2009,05,24,06,23,8.30
2009,05,24,06,24,8.30
2009,05,24,06,25,8.30
2009,05,24,06,26,8.30
2009,05,24,06,27,8.30
2009,05,24,06,28,8.30
2009,05,24,06,29,8.30
2009,05,24,06,30,8.30
2009,05,24,06,31,8.30
2009,05,24,06,32,8.30
2009,05,24,06,33,8.30
2009,05,24,06,34,8.40
2009,05,24,06,35,8.40
2009,05,24,06,36,8.40
2009,05,24,06,37,8.40
2009,05,24,06,38,8.40
2009,05,24,06,39,8.40
2009,05,24,06,40,8.40
2009,05,24,06,41,8.40
2009,05,24,06,42,8.40
2009,05,24,06,43,8.40
2009,05,24,06,44,8.40
2009,05,24,06,45,8.40
2009,05,24,06,46,8.40
2009,05,24,06,47,8.40
2009,05,24,06,48,8.40
2009,05,24,06,49,8.40
2009,05,24,06,50,8.40
2009,05,24,06,51,8.40
2009,05,24,06,52,8.40
2009,05,24,06,53,8.40
2009,05,24,06,54,8.40
2009,05,24,06,55,8.50
2009,05,24,06,56,8.50
2009,05,24,06,57,8.50
2009,05,24,06,58,8.50
2009,05,24,06,59,8.50
2009,05,24,07,00,8.50
2009,05,24,07,01,8.50
2009,05,24,07,02,8.50
2009,05,24,07,03,8.40
2009,05,24,07,04,8.40
2009,05,24,07,05,8.40
2009,05,24,07,06,8.40
2009,05,24,07,07,8.40
2009,05,24,07,08,8.40
2009,05,24,07,09,8.30
2009,05,24,07,10,8.30
2009,05,24,07,11,8.30
2009,05,24,07,12,8.30
2009,05,24,07,13,8.30
2009,05,24,07,14,8.30
2009,05,24,07,15,8.30
2009,05,24,07,16,8.30
2009,05,24,07,17,8.30
2009,05,24,07,18,8.30
2009,05,24,07,19,8.30
2009,05,24,07,20,8.30
2009,05,24,07,21,8.30
2009,05,24,07,22,8.30
2009,05,24,07,23,8.30
2009,05,24,07,24,8.30
2009,05,24,07,25,8.30
2009,05,24,07,26,8.30
2009,05,24,07,27,8.30
2009,05,24,07,28,8.30
2009,05,24,07,29,8.20
2009,05,24,07,30,8.20
2009,05,24,07,31,8.20
2009,05,24,07,32,8.20
2009,05,24,07,33,8.10
2009,05,24,07,34,8.10
2009,05,24,07,35,8.10
2009,05,24,07,36,8.10
2009,05,24,07,37,8.10
2009,05,24,07,38,8.00
2009,05,24,07,39,8.00
2009,05,24,07,40,8.00
2009,05,24,07,41,8.00
2009,05,24,07,42,8.00
2009,05,24,07,43,7.90
2009,05,24,07,44,7.90
2009,05,24,07,45,8.00
2009,05,24,07,46,8.00
2009,05,24,07,47,8.00
2009,05,24,07,48,8.00
2009,05,24,07,49,8.00
2009,05,24,07,50,8.00
2009,05,24,07,51,8.00
2009,05,24,07,52,8.00
2009,05,24,07,53,8.00
2009,05,24,07,54,8.00
2009,05,24,07,55,8.10
2009,05,24,07,56,8.10
2009,05,24,07,57,8.10
2009,05,24,07,58,8.10
2009,05,24,07,59,8.20
2009,05,24,08,00,8.20
2009,05,24,08,01,8.20
2009,05,24,08,02,8.10
2009,05,24,08,03,8.10
2009,05,24,08,04,8.10
2009,05,24,08,05,8.10
2009,05,24,08,06,8.20
2009,05,24,08,07,8.20
2009,05,24,08,08,8.20
2009,05,24,08,09,8.20
2009,05,24,08,10,8.20
2009,05,24,08,11,8.20
2009,05,24,08,12,8.20
2009,05,24,08,13,8.20
2009,05,24,08,14,8.20
2009,05,24,08,15,8.20
2009,05,24,08,16,8.30
2009,05,24,08,17,8.30
2009,05,24,08,18,8.30
2009,05,24,08,19,8.40
2009,05,24,08,20,8.40
2009,05,24,08,21,8.40
2009,05,24,08,22,8.40
2009,05,24,08,23,8.40
2009,05,24,08,24,8.40
2009,05,24,08,25,8.40
2009,05,24,08,26,8.40
2009,05,24,08,27,8.40
2009,05,24,08,28,8.40
2009,05,24,08,29,8.40
2009,05,24,08,30,8.40
2009,05,24,08,31,8.40
2009,05,24,08,32,8.50
2009,05,24,08,33,8.50
2009,05,24,08,34,8.60
2009,05,24,08,35,8.60
2009,05,24,08,36,8.60
2009,05,24,08,37,8.70
2009,05,24,08,38,8.70
2009,05,24,08,39,8.80
2009,05,24,08,40,8.80
2009,05,24,08,41,8.80
2009,05,24,08,42,8.80
2009,05,24,08,43,8.90
2009,05,24,08,44,8.90
2009,05,24,08,45,9.00
2009,05,24,08,46,9.00
2009,05,24,08,47,9.10
2009,05,24,08,48,9.20
2009,05,24,08,49,9.20
2009,05,24,08,50,9.30
2009,05,24,08,51,9.30
2009,05,24,08,52,9.40
2009,05,24,08,53,9.40
2009,05,24,08,54,9.50
2009,05,24,08,55,9.50
2009,05,24,08,56,9.60
2009,05,24,08,57,9.70
2009,05,24,08,58,9.80
2009,05,24,08,59,9.90
2009,05,24,09,00,10.00
2009,05,24,09,01,10.10
2009,05,24,09,02,10.30
2009,05,24,09,03,10.40
2009,05,24,09,04,10.50
2009,05,24,09,05,10.70
2009,05,24,09,06,10.80
2009,05,24,09,07,10.80
2009,05,24,09,08,10.90
2009,05,24,09,09,10.90
2009,05,24,09,10,10.90
2009,05,24,09,11,10.80
2009,05,24,09,12,10.80
2009,05,24,09,13,10.80
2009,05,24,09,14,10.80
2009,05,24,09,15,10.70
2009,05,24,09,16,10.80
2009,05,24,09,17,10.80
2009,05,24,09,18,10.90
2009,05,24,09,19,10.90
2009,05,24,09,20,11.00
2009,05,24,09,21,11.10
2009,05,24,09,22,11.20
2009,05,24,09,23,11.30
2009,05,24,09,24,11.50
2009,05,24,09,25,11.60
2009,05,24,09,26,11.70
2009,05,24,09,27,11.90
2009,05,24,09,28,11.90
2009,05,24,09,29,12.00
2009,05,24,09,30,12.10
2009,05,24,09,31,12.20
2009,05,24,09,32,12.20
2009,05,24,09,33,12.30
2009,05,24,09,34,12.40
2009,05,24,09,35,12.40
2009,05,24,09,36,12.40
2009,05,24,09,37,12.40
2009,05,24,09,38,12.50
2009,05,24,09,39,12.50
2009,05,24,09,40,12.60
2009,05,24,09,41,12.60
2009,05,24,09,42,12.60
2009,05,24,09,43,12.60
2009,05,24,09,44,12.60
2009,05,24,09,45,12.50
2009,05,24,09,46,12.50
2009,05,24,09,47,12.60
2009,05,24,09,48,12.60
2009,05,24,09,49,12.60
2009,05,24,09,50,12.70
2009,05,24,09,51,12.70
2009,05,24,09,52,12.80
2009,05,24,09,53,12.80
2009,05,24,09,54,12.90
2009,05,24,09,55,12.90
2009,05,24,09,56,12.90
2009,05,24,09,57,13.00
2009,05,24,09,58,13.10
2009,05,24,09,59,13.10
2009,05,24,10,00,13.20
2009,05,24,10,01,13.20
2009,05,24,10,02,13.30
2009,05,24,10,03,13.40
2009,05,24,10,04,13.50
2009,05,24,10,05,13.60
2009,05,24,10,06,13.60
2009,05,24,10,07,13.70
2009,05,24,10,08,13.70
2009,05,24,10,09,13.70
2009,05,24,10,10,13.80
2009,05,24,10,11,13.80
2009,05,24,10,12,13.90
2009,05,24,10,13,13.90
2009,05,24,10,14,13.90
2009,05,24,10,15,14.00
2009,05,24,10,16,14.10
2009,05,24,10,17,14.10
2009,05,24,10,18,14.20
2009,05,24,10,19,14.30
2009,05,24,10,20,14.40
2009,05,24,10,21,14.50
2009,05,24,10,22,14.60
2009,05,24,10,23,14.70
2009,05,24,10,24,14.70
2009,05,24,10,25,14.70
2009,05,24,10,26,14.70
2009,05,24,10,27,14.60
2009,05,24,10,28,14.50
2009,05,24,10,29,14.50
2009,05,24,10,30,14.50
2009,05,24,10,31,14.40
2009,05,24,10,32,14.40
2009,05,24,10,33,14.30
2009,05,24,10,34,14.30
2009,05,24,10,35,14.30
2009,05,24,10,36,14.30
2009,05,24,10,37,14.40
2009,05,24,10,38,14.40
2009,05,24,10,39,14.40
2009,05,24,10,40,14.40
2009,05,24,10,41,14.40
2009,05,24,10,42,14.40
2009,05,24,10,43,14.40
2009,05,24,10,44,14.50
2009,05,24,10,45,14.50
2009,05,24,10,46,14.40
2009,05,24,10,47,14.30
2009,05,24,10,48,14.20
2009,05,24,10,49,14.20
2009,05,24,10,50,14.00
2009,05,24,10,51,14.00
2009,05,24,10,52,13.90
2009,05,24,10,53,13.90
2009,05,24,10,54,13.90
2009,05,24,10,55,13.80
2009,05,24,10,56,13.80
2009,05,24,10,57,13.70
2009,05,24,10,58,13.60
2009,05,24,10,59,13.50
2009,05,24,11,00,13.50
2009,05,24,11,01,13.50
2009,05,24,11,02,13.60
2009,05,24,11,03,13.60
2009,05,24,11,04,13.50
2009,05,24,11,05,13.50
2009,05,24,11,06,13.40
2009,05,24,11,07,13.40
2009,05,24,11,08,13.40
2009,05,24,11,09,13.50
2009,05,24,11,10,13.60
2009,05,24,11,11,13.80
2009,05,24,11,12,13.90
2009,05,24,11,13,14.10
2009,05,24,11,14,14.20
2009,05,24,11,15,14.30
2009,05,24,11,16,14.40
2009,05,24,11,17,14.40
2009,05,24,11,18,14.40
2009,05,24,11,19,14.40
2009,05,24,11,20,14.40
2009,05,24,11,21,14.50
2009,05,24,11,22,14.40
2009,05,24,11,23,14.30
2009,05,24,11,24,14.40
2009,05,24,11,25,14.40
2009,05,24,11,26,14.40
2009,05,24,11,27,14.30
2009,05,24,11,28,14.20
2009,05,24,11,29,14.20
2009,05,24,11,30,14.30
2009,05,24,11,31,14.30
2009,05,24,11,32,14.40
2009,05,24,11,33,14.50
2009,05,24,11,34,14.60
2009,05,24,11,35,14.70
2009,05,24,11,36,14.70
2009,05,24,11,37,14.60
2009,05,24,11,38,14.50
2009,05,24,11,39,14.40
2009,05,24,11,40,14.30
2009,05,24,11,41,14.30
2009,05,24,11,42,14.20
2009,05,24,11,43,14.20
2009,05,24,11,44,14.20
2009,05,24,11,45,14.30
2009,05,24,11,46,14.40
2009,05,24,11,47,14.30
2009,05,24,11,48,14.20
2009,05,24,11,49,14.20
2009,05,24,11,50,14.10
2009,05,24,11,51,14.10
2009,05,24,11,52,14.10
2009,05,24,11,53,14.20
2009,05,24,11,54,14.20
2009,05,24,11,55,14.20
2009,05,24,11,56,14.20
2009,05,24,11,57,14.10
2009,05,24,11,58,14.00
2009,05,24,11,59,13.80
2009,05,24,12,00,13.80
2009,05,24,12,01,13.80
2009,05,24,12,02,13.80
2009,05,24,12,03,13.80
2009,05,24,12,04,13.80
2009,05,24,12,05,13.90
2009,05,24,12,06,13.90
2009,05,24,12,07,13.90
2009,05,24,12,08,13.80
2009,05,24,12,09,13.70
2009,05,24,12,10,13.60
2009,05,24,12,11,13.50
2009,05,24,12,12,13.50
2009,05,24,12,13,13.50
2009,05,24,12,14,13.50
2009,05,24,12,15,13.50
2009,05,24,12,16,13.50
2009,05,24,12,17,13.50
2009,05,24,12,18,13.60
2009,05,24,12,19,13.70
2009,05,24,12,20,13.70
2009,05,24,12,21,13.60
2009,05,24,12,22,13.60
2009,05,24,12,23,13.60
2009,05,24,12,24,13.60
2009,05,24,12,25,13.70
2009,05,24,12,26,13.80
2009,05,24,12,27,13.80
2009,05,24,12,28,13.80
2009,05,24,12,29,13.70
2009,05,24,12,30,13.70
2009,05,24,12,31,13.60
2009,05,24,12,32,13.60
2009,05,24,12,33,13.60
2009,05,24,12,34,13.60
2009,05,24,12,35,13.60
2009,05,24,12,36,13.60
2009,05,24,12,37,13.60
2009,05,24,12,38,13.60
2009,05,24,12,39,13.60
2009,05,24,12,40,13.60
2009,05,24,12,41,13.60
2009,05,24,12,42,13.60
2009,05,24,12,43,13.70
2009,05,24,12,44,13.70
2009,05,24,12,45,13.70
2009,05,24,12,46,13.70
2009,05,24,12,47,13.70
2009,05,24,12,48,13.80
2009,05,24,12,49,13.90
2009,05,24,12,50,14.00
2009,05,24,12,51,14.00
2009,05,24,12,52,14.10
2009,05,24,12,53,14.10
2009,05,24,12,54,14.20
2009,05,24,12,55,14.20
2009,05,24,12,56,14.10
2009,05,24,12,57,14.00
2009,05,24,12,58,13.90
2009,05,24,12,59,13.80
2009,05,24,13,00,13.80
2009,05,24,13,01,13.70
2009,05,24,13,02,13.60
2009,05,24,13,03,13.50
2009,05,24,13,04,13.60
2009,05,24,13,05,13.70
2009,05,24,13,06,13.80
2009,05,24,13,07,13.90
2009,05,24,13,08,14.00
2009,05,24,13,09,14.10
2009,05,24,13,10,14.20
2009,05,24,13,11,14.30
2009,05,24,13,12,14.30
2009,05,24,13,13,14.30
2009,05,24,13,14,14.30
2009,05,24,13,15,14.20
2009,05,24,13,16,14.10
2009,05,24,13,17,14.10
2009,05,24,13,18,14.10
2009,05,24,13,19,14.10
2009,05,24,13,20,14.10
2009,05,24,13,21,14.00
2009,05,24,13,22,13.80
2009,05,24,13,23,13.70
2009,05,24,13,24,13.70
2009,05,24,13,25,13.70
2009,05,24,13,26,13.70
2009,05,24,13,27,13.80
2009,05,24,13,28,13.80
2009,05,24,13,29,13.80
2009,05,24,13,30,13.80
2009,05,24,13,31,13.90
2009,05,24,13,32,13.90
2009,05,24,13,33,13.90
2009,05,24,13,34,13.90
2009,05,24,13,35,14.00
2009,05,24,13,36,14.00
2009,05,24,13,37,14.00
2009,05,24,13,38,13.80
2009,05,24,13,39,13.60
2009,05,24,13,40,13.40
2009,05,24,13,41,13.30
2009,05,24,13,42,13.30
2009,05,24,13,43,13.20
2009,05,24,13,44,13.20
2009,05,24,13,45,13.10
2009,05,24,13,46,13.00
2009,05,24,13,47,13.10
2009,05,24,13,48,13.10
2009,05,24,13,49,13.10
2009,05,24,13,50,13.20
2009,05,24,13,51,13.30
2009,05,24,13,52,13.30
2009,05,24,13,53,13.30
2009,05,24,13,54,13.30
2009,05,24,13,55,13.30
2009,05,24,13,56,13.30
2009,05,24,13,57,13.40
2009,05,24,13,58,13.50
2009,05,24,13,59,13.50
2009,05,24,14,00,13.50
2009,05,24,14,01,13.60
2009,05,24,14,02,13.70
2009,05,24,14,03,13.80
2009,05,24,14,04,13.80
2009,05,24,14,05,13.80
2009,05,24,14,06,13.80
2009,05,24,14,07,13.80
2009,05,24,14,08,13.80
2009,05,24,14,09,13.80
2009,05,24,14,10,13.80
2009,05,24,14,11,13.70
2009,05,24,14,12,13.60
2009,05,24,14,13,13.50
2009,05,24,14,14,13.40
2009,05,24,14,15,13.40
2009,05,24,14,16,13.50
2009,05,24,14,17,13.50
2009,05,24,14,18,13.50
2009,05,24,14,19,13.50
2009,05,24,14,20,13.40
2009,05,24,14,21,13.40
2009,05,24,14,22,13.40
2009,05,24,14,23,13.50
2009,05,24,14,24,13.50
2009,05,24,14,25,13.60
2009,05,24,14,26,13.40
2009,05,24,14,27,13.40
2009,05,24,14,28,13.40
2009,05,24,14,29,13.40
2009,05,24,14,30,13.30
2009,05,24,14,31,13.20
2009,05,24,14,32,13.10
2009,05,24,14,33,13.10
2009,05,24,14,34,13.00
2009,05,24,14,35,13.00
2009,05,24,14,36,13.00
2009,05,24,14,37,13.10
2009,05,24,14,38,13.10
2009,05,24,14,39,13.20
2009,05,24,14,40,13.20
2009,05,24,14,41,13.20
2009,05,24,14,42,13.20
2009,05,24,14,43,13.20
2009,05,24,14,44,13.30
2009,05,24,14,45,13.30
2009,05,24,14,46,13.40
2009,05,24,14,47,13.50
2009,05,24,14,48,13.50
2009,05,24,14,49,13.60
2009,05,24,14,50,13.60
2009,05,24,14,51,13.50
2009,05,24,14,52,13.50
2009,05,24,14,53,13.60
2009,05,24,14,54,13.60
2009,05,24,14,55,13.70
2009,05,24,14,56,13.90
2009,05,24,14,57,13.90
2009,05,24,14,58,13.90
2009,05,24,14,59,13.90
2009,05,24,15,00,13.80
2009,05,24,15,01,13.70
2009,05,24,15,02,13.60
2009,05,24,15,03,13.60
2009,05,24,15,04,13.50
2009,05,24,15,05,13.40
2009,05,24,15,06,13.40
2009,05,24,15,07,13.40
2009,05,24,15,08,13.40
2009,05,24,15,09,13.10
2009,05,24,15,10,13.00
2009,05,24,15,11,12.80
2009,05,24,15,12,12.70
2009,05,24,15,13,12.70
2009,05,24,15,14,12.60
2009,05,24,15,15,12.50
2009,05,24,15,16,12.50
2009,05,24,15,17,12.60
2009,05,24,15,18,12.60
2009,05,24,15,19,12.60
2009,05,24,15,20,12.60
2009,05,24,15,21,12.60
2009,05,24,15,22,12.60
2009,05,24,15,23,12.60
2009,05,24,15,24,12.70
2009,05,24,15,25,12.70
2009,05,24,15,26,12.70
2009,05,24,15,27,12.80
2009,05,24,15,28,12.90
2009,05,24,15,29,12.80
2009,05,24,15,30,12.80
2009,05,24,15,31,12.70
2009,05,24,15,32,12.70
2009,05,24,15,33,12.70
2009,05,24,15,34,12.80
2009,05,24,15,35,12.90
2009,05,24,15,36,13.00
2009,05,24,15,37,13.00
2009,05,24,15,38,13.00
2009,05,24,15,39,13.00
2009,05,24,15,40,13.10
2009,05,24,15,41,13.20
2009,05,24,15,42,13.20
2009,05,24,15,43,13.30
2009,05,24,15,44,13.40
2009,05,24,15,45,13.40
2009,05,24,15,46,13.50
2009,05,24,15,47,13.50
2009,05,24,15,48,13.50
2009,05,24,15,49,13.50
2009,05,24,15,50,13.50
2009,05,24,15,51,13.50
2009,05,24,15,52,13.60
2009,05,24,15,53,13.70
2009,05,24,15,54,13.60
2009,05,24,15,55,13.70
2009,05,24,15,56,13.80
2009,05,24,15,57,13.90
2009,05,24,15,58,14.00
2009,05,24,15,59,14.00
2009,05,24,16,00,14.00
2009,05,24,16,01,14.00
2009,05,24,16,02,14.00
2009,05,24,16,03,14.00
2009,05,24,16,04,13.90
2009,05,24,16,05,13.90
2009,05,24,16,06,13.90
2009,05,24,16,07,13.80
2009,05,24,16,08,13.70
2009,05,24,16,09,13.70
2009,05,24,16,10,13.60
2009,05,24,16,11,13.60
2009,05,24,16,12,13.50
2009,05,24,16,13,13.50
2009,05,24,16,14,13.50
2009,05,24,16,15,13.40
2009,05,24,16,16,13.50
2009,05,24,16,17,13.50
2009,05,24,16,18,13.60
2009,05,24,16,19,13.50
2009,05,24,16,20,13.40
2009,05,24,16,21,13.30
2009,05,24,16,22,13.40
2009,05,24,16,23,13.40
2009,05,24,16,24,13.50
2009,05,24,16,25,13.60
2009,05,24,16,26,13.60
2009,05,24,16,27,13.60
2009,05,24,16,28,13.70
2009,05,24,16,29,13.90
2009,05,24,16,30,14.00
2009,05,24,16,31,14.20
2009,05,24,16,32,14.00
2009,05,24,16,33,13.80
2009,05,24,16,34,13.70
2009,05,24,16,35,13.50
2009,05,24,16,36,13.40
2009,05,24,16,37,13.30
2009,05,24,16,38,13.20
2009,05,24,16,39,13.10
2009,05,24,16,40,13.00
2009,05,24,16,41,12.80
2009,05,24,16,42,12.70
2009,05,24,16,43,12.50
2009,05,24,16,44,12.50
2009,05,24,16,45,12.50
2009,05,24,16,46,12.40
2009,05,24,16,47,12.40
2009,05,24,16,48,12.40
2009,05,24,16,49,12.40
2009,05,24,16,50,12.40
2009,05,24,16,51,12.40
2009,05,24,16,52,12.40
2009,05,24,16,53,12.50
2009,05,24,16,54,12.40
2009,05,24,16,55,12.40
2009,05,24,16,56,12.40
2009,05,24,16,57,12.40
2009,05,24,16,58,12.40
2009,05,24,16,59,12.40
2009,05,24,17,00,12.40
2009,05,24,17,01,12.30
2009,05,24,17,02,12.20
2009,05,24,17,03,12.20
2009,05,24,17,04,12.10
2009,05,24,17,05,12.10
2009,05,24,17,06,12.10
2009,05,24,17,07,12.20
2009,05,24,17,08,12.20
2009,05,24,17,09,12.30
2009,05,24,17,10,12.40
2009,05,24,17,11,12.40
2009,05,24,17,12,12.40
2009,05,24,17,13,12.40
2009,05,24,17,14,12.30
2009,05,24,17,15,12.30
2009,05,24,17,16,12.30
2009,05,24,17,17,12.30
2009,05,24,17,18,12.30
2009,05,24,17,19,12.20
2009,05,24,17,20,12.20
2009,05,24,17,21,12.20
2009,05,24,17,22,12.30
2009,05,24,17,23,12.20
2009,05,24,17,24,12.10
2009,05,24,17,25,12.00
2009,05,24,17,26,12.00
2009,05,24,17,27,11.90
2009,05,24,17,28,11.90
2009,05,24,17,29,11.90
2009,05,24,17,30,11.90
2009,05,24,17,31,11.90
2009,05,24,17,32,11.90
2009,05,24,17,33,11.80
2009,05,24,17,34,11.80
2009,05,24,17,35,11.70
2009,05,24,17,36,11.70
2009,05,24,17,37,11.60
2009,05,24,17,38,11.60
2009,05,24,17,39,11.50
2009,05,24,17,40,11.30
2009,05,24,17,41,11.30
2009,05,24,17,42,11.30
2009,05,24,17,43,11.30
2009,05,24,17,44,11.30
2009,05,24,17,45,11.30
2009,05,24,17,46,11.30